Regional Weather Roundup
Issued by NWS Sioux Falls, SD

Home | Current Version | Previous Version | Text Only | Print | Product List | Glossary On
Versions: 1 2 3 4 5 6 7 8 9 10 11 12 13 14 15 16 17 18 19 20 21 22 23 24 25 26 27 28 29 30 31 32 33 34 35 36 37 38 39 40 41 42 43 44 45 46 47 48 49 50
000
ASUS43 KFSD 061310
RWRFSD

WEATHER ROUNDUP FOR SE SOUTH DAKOTA/SW MINNESOTA/NW IOWA
NATIONAL WEATHER SERVICE SIOUX FALLS SD
700 AM CST FRI MAR 06 2015

NOTE: "FAIR" INDICATES FEW OR NO CLOUDS BELOW 12,000 FEET WITH NO
SIGNIFICANT WEATHER AND OR OBSTRUCTIONS TO VISIBILITY.


SDZ038>040-050-052>070-061400-
SOUTHEAST SOUTH DAKOTA

CITY           SKY/WX    TMP DP  RH WIND       PRES   REMARKS
CHAMBERLAIN    MOCLDY    28  20  71 SW5       30.10S WCI  23
HURON          CLOUDY    19  13  77 NE3       30.07S
MADISON        FAIR      18  12  79 W9        30.06S WCI   6
MITCHELL       CLOUDY    29  19  66 SW7       30.10S WCI  22
SIOUX FALLS    PTCLDY    17   9  70 W3        30.09R
WINNER         PTSUNNY   31  17  56 SW9       30.11S WCI  23
YANKTON        CLEAR     23  12  63 CALM      30.14F
$$

MNZ071-072-080-081-089-090-097-098-061400-
SOUTHWEST MINNESOTA

CITY           SKY/WX    TMP DP  RH WIND       PRES   REMARKS
FAIRMONT       CLEAR     16   9  73 S12       30.07F WCI   3
JACKSON        CLEAR     19  10  68 SW13      30.07F WCI   7
LUVERNE        CLEAR     12   7  79 CALM      30.10S
MARSHALL       CLEAR     21   9  58 W13       30.05F WCI   9
MONTEVIDEO     CLEAR     18  10  73 W6        30.06R WCI   9
PIPESTONE      CLEAR     12   7  79 SW5       30.07R WCI   4
REDWOOD FALLS  CLEAR     16   9  74 SW5       30.05F WCI   9
TRACY          CLEAR     20  12  69 SW13      30.05S WCI   8
WINDOM         CLEAR     18  10  73 SW9       30.07S WCI   6
WORTHINGTON    PTCLDY    18   9  68 SW13      30.09S WCI   4
$$

IAZ001>003-012>014-020>022-031-032-NEZ013-014-SDZ071-061400-
NORTHWEST IOWA

CITY           SKY/WX    TMP DP  RH WIND       PRES   REMARKS
CHEROKEE       FAIR      15  10  82 CALM      30.13F
DENISON        PTCLDY    21  14  73 S6        30.14S WCI  14
ESTHERVILLE    PTCLDY    17   9  70 SW10      30.09S WCI   5
LE MARS        PTCLDY    18  12  79 S5        30.14S WCI  11
ORANGE CITY    PTCLDY    18  10  73 CALM      30.11S
SHELDON        PTCLDY    16  10  79 SW6       30.10S WCI   7
SIOUX CITY     CLEAR     15   8  73 E6        30.15S WCI   6
SPENCER        CLEAR     14   7  73 SW7       30.11F WCI   4
STORM LAKE     PTCLDY    19  12  73 SW16      30.11F WCI   5
$$

ABBREVIATIONS USED IN REMARKS
   TC - TEMPERATURE IN CELSIUS
  WCI - WIND CHILL INDEX
   HX - HEAT INDEX
  VSB - VISIBILITY




USA.gov is the U.S. government's official web portal to all federal, state and local government web resources and services.